This is the latest recevied weather packets stored in our database for station/object W7TRD. If no packets are shown the sender has not sent any weather packets the latest 10 day(s).
| Time | Temp. | Humidity | Pressure | Rain* | Wind** | Luminosity | Snow |
|---|---|---|---|---|---|---|---|
| 1777736124 | 11.11° C | 86% | 1017.3 hPa | 0 mm | - | 100 W/m² | - |
| 1777735821 | 11.11° C | 86% | 1017.4 hPa | 0 mm | - | 73 W/m² | - |
| 1777735519 | 11.11° C | 86% | 1017.1 hPa | 0 mm | - | 74 W/m² | - |
| 1777735216 | 11.11° C | 86% | 1017.5 hPa | 0 mm | - | 67 W/m² | - |
| 1777734913 | 11.11° C | 87% | 1017.5 hPa | 0 mm | - | 65 W/m² | - |
| 1777734610 | 11.11° C | 87% | 1017.4 hPa | 0 mm | - | 61 W/m² | - |
| 1777734308 | 11.11° C | 87% | 1017.5 hPa | 0 mm | - | 52 W/m² | - |
| 1777734003 | 11.11° C | 87% | 1017.5 hPa | 0 mm | - | 46 W/m² | - |
| 1777733700 | 11.11° C | 88% | 1017.3 hPa | 0 mm | - | 44 W/m² | - |
| 1777733397 | 11.11° C | 87% | 1017.3 hPa | 0 mm | - | 41 W/m² | - |
| 1777733093 | 11.11° C | 88% | 1017.6 hPa | 0 mm | - | 37 W/m² | - |
| 1777732790 | 11.11° C | 88% | 1017.3 hPa | 0 mm | - | 37 W/m² | - |
| 1777732487 | 10.56° C | 88% | 1017.3 hPa | 0 mm | - | 32 W/m² | - |
| 1777732184 | 10.56° C | 88% | 1017.4 hPa | 0 mm | - | 27 W/m² | - |
| 1777731881 | 10.56° C | 88% | 1017.5 hPa | 0 mm | - | 24 W/m² | - |
| 1777731578 | 10.56° C | 88% | 1017.4 hPa | 0 mm | - | 21 W/m² | - |
| 1777731276 | 10.56° C | 88% | 1017.3 hPa | 0 mm | - | 21 W/m² | - |
| 1777730973 | 10.56° C | 88% | 1017.3 hPa | 0 mm | - | 19 W/m² | - |
| 1777730672 | 10.56° C | 88% | 1017.3 hPa | 0 mm | - | 19 W/m² | - |
| 1777730367 | 10.56° C | 89% | 1017.1 hPa | 0 mm | - | 17 W/m² | - |
| 1777730063 | 10.56° C | 88% | 1017.1 hPa | 0 mm | - | 16 W/m² | - |
| 1777729760 | 10.56° C | 89% | 1017.4 hPa | 0 mm | - | 13 W/m² | - |
| 1777729457 | 10.56° C | 89% | 1017.1 hPa | 0 mm | - | 11 W/m² | - |
| 1777729153 | 10.56° C | 89% | 1016.9 hPa | 0 mm | - | 10 W/m² | - |
| 1777728850 | 10.56° C | 89% | 1016.9 hPa | 0 mm | - | 9 W/m² | - |
* Rain latest hour (hover to see other rain measurements)
** Current wind speed in m/s (hover to see current wind gust speed)